Regional Weather Roundup
Issued by NWS Northern Indiana

Home | Current Version | Previous Version | Graphics & Text | Print | Product List | Glossary On
Versions: 1 2 3 4 5 6 7 8 9 10 11 12 13 14 15 16 17 18 19 20 21 22 23 24 25 26 27 28 29 30 31 32 33 34 35 36 37 38 39 40 41 42 43 44 45 46 47 48 49 50
297
ASUS43 KIWX 161210
RWRIWX

KIWX WEATHER ROUNDUP
NATIONAL WEATHER SERVICE NORTHERN INDIANA
700 AM EST MON JAN 16 2017

NOTE: "FAIR" INDICATES FEW OR NO CLOUDS BELOW 12,000 FEET WITH NO
SIGNIFICANT WEATHER AND/OR OBSTRUCTIONS TO VISIBILITY.

* THESE STATIONS ARE NOT UNDER NWS QUALITY CONTROL. THEY ALSO MAY NOT
  REPORT WEATHER SUCH AS PRECIPITATION OR FOG.

INZ001>027-161300-
NORTHERN INDIANA

CITY           SKY/WX    TMP DP  RH WIND       PRES   REMARKS
GARY*          CLOUDY    34  28  80 CALM      30.27F
VALPARAISO     CLOUDY    33  30  88 E7        30.25F FOG     WCI  27
6HR MIN TEMP:  31; 6HR MAX TEMP:  33;

LAPORTE*       CLOUDY    32  28  88 E7        30.27S WCI  25
6HR MIN TEMP:  30; 6HR MAX TEMP:  32;

KNOX*          CLOUDY    32  18  55 CALM      30.26S
SOUTH BEND     CLOUDY    31  26  82 SE5       30.29S WCI  26
6HR MIN TEMP:  28; 6HR MAX TEMP:  31; 6HR PCP: TRACE;

ELKHART*       CLOUDY    32  27  80 CALM      30.28
GOSHEN         CLOUDY    32  26  78 E5        30.28F HAZE    WCI  27
6HR MIN TEMP:  29; 6HR MAX TEMP:  32; 6HR PCP: TRACE;

ROCHESTER*     CLOUDY    34  32  93 E5        30.28S FOG     WCI  30
WARSAW*        DRIZZLE   32  23  69 E3        30.28S
FORT WAYNE     CLOUDY    33  29  85 E6        30.29S FOG     WCI  28
6HR MIN TEMP:  30; 6HR MAX TEMP:  33;

PERU/GRISSOM   CLOUDY    33  33  99 E6        30.24S WCI  28
6HR MIN TEMP:  32; 6HR MAX TEMP:  33;

MARION*        CLOUDY    34  32  93 SE8       30.27S FOG     WCI  27

$$
INZ028>050-161300-
CENTRAL INDIANA

CITY           SKY/WX    TMP DP  RH WIND       PRES   REMARKS
LAFAYETTE      CLOUDY    34  33  96 E6        30.25S FOG     WCI  29
6HR MIN TEMP:  32; 6HR MAX TEMP:  34;

KOKOMO*        CLOUDY    33  32  96 E9        30.26F FOG     WCI  25
6HR MIN TEMP:  32; 6HR MAX TEMP:  33;

MUNCIE*        CLOUDY    35  33  92 E3        30.27S FOG
6HR MIN TEMP:  33; 6HR MAX TEMP:  35;

INDIANAPOLIS   CLOUDY    36  35  96 E7        30.24S FOG
6HR MIN TEMP:  35; 6HR MAX TEMP:  36; 6HR PCP: TRACE;


$$
MIZ043>046-050>051-056>058-064>065-071>073-077>080-161300-
SOUTHWEST LOWER MICHIGAN

CITY           SKY/WX    TMP DP  RH WIND       PRES   REMARKS
BATTLE CREEK   CLOUDY    28  23  81 CALM      30.30S
6HR MIN TEMP:  21; 6HR MAX TEMP:  28;

BENTON HARBOR  CLOUDY    32  25  75 CALM      30.29S
6HR MIN TEMP:  25; 6HR MAX TEMP:  32;

COLDWATER*     CLOUDY    30  27  87 SE3       30.29S
6HR MIN TEMP:  22; 6HR MAX TEMP:  30;

HILLSDALE*     CLOUDY    28  25  86 CALM      30.29R FOG
HOLLAND        CLOUDY    28  23  81 SE5       30.30S WCI  23
6HR MIN TEMP:  23; 6HR MAX TEMP:  28;

GRAND RAPIDS   CLOUDY    24  20  84 CALM      30.30S FOG
6HR MIN TEMP:  20; 6HR MAX TEMP:  24;

KALAMAZOO      CLOUDY    29  23  78 E3        30.30S HAZE
6HR MIN TEMP:  21; 6HR MAX TEMP:  29;

STURGIS*       CLOUDY    30  26  84 SE3       30.29R
6HR MIN TEMP:  26; 6HR MAX TEMP:  30;

THREE RIVERS*  CLOUDY    29  26  86 CALM      30.29F
6HR MIN TEMP:  24; 6HR MAX TEMP:  29;


$$
OHZ001>008-015>018-024>025-161300-
NORTHWEST OHIO

CITY           SKY/WX    TMP DP  RH WIND       PRES   REMARKS
DEFIANCE       CLOUDY    31  26  82 NE3       30.31F HAZE
6HR MIN TEMP:  26; 6HR MAX TEMP:  31;

FINDLAY        CLOUDY    32  27  81 SE3       30.30S HAZE
6HR MIN TEMP:  29; 6HR MAX TEMP:  32;

TOLEDO EXPRESS CLOUDY    27  26  96 E5        30.32S FOG     WCI  22
6HR MIN TEMP:  20; 6HR MAX TEMP:  27;

TOLEDO METCALF CLOUDY    29  26  89 E3        30.34S FOG
6HR MIN TEMP:  22; 6HR MAX TEMP:  29;

LIMA           CLOUDY    33  31  92 CALM      30.30R FOG
6HR MIN TEMP:  30; 6HR MAX TEMP:  33;


$$
AND FOR LAKE MICHIGAN COASTAL AND OPEN LAKE BUOY OBSERVATIONS

STATION/POSITION TEMP    WIND        PRES    VSBY  WAVE
                 AIR SEA DIR/SP/G                  HT/PER
                 (F)     (DEG/KT/KT) (MB)    (MI)  (FT/S)
CALUMET HARBOR    32      50/  4/  7 1024.2F
MICHIGAN CITY     32      50/  6/  6   N/A
BURNS HARBOR      32      70/  6/  7 1025.4F
SAINT JOSEPH      31      40/  1/  3 1026.1

$$
&&




USA.gov is the U.S. government's official web portal to all federal, state and local government web resources and services.